RYR575 LROP-LCPH

Flight info

Callsign RYR575
Flight time 1h 47m
Altitude 33000
Route IDARU DCT MATEL N616 RIXEN UN616 IST UT35 AYT UA16 TOMBI M855 DASNI M32 TOBAL
Aircraft B738/M-VGDW/C

Departure

Time 2026-04-23 11:41
Airport Bucharest Henri Coandă International Airport (LROP)

Arrival

Time 2026-04-23 13:28
Airport Paphos International Airport (LCPH)
Time Latitude Longitude Altitude Speed Heading
2026-04-23 11:25 44.57268 26.08096 318 ft 0 kts 356°
2026-04-23 11:28 44.57265 26.08096 318 ft 2 kts 355°
2026-04-23 11:28 44.57250 26.08100 318 ft 2 kts 351°
2026-04-23 11:29 44.57235 26.08102 318 ft 2 kts 353°
2026-04-23 11:29 44.57220 26.08105 318 ft 2 kts 352°
2026-04-23 11:29 44.57211 26.08106 318 ft 1 kts 26°
2026-04-23 11:29 44.57205 26.08097 318 ft 0 kts 79°
2026-04-23 11:30 44.57205 26.08089 318 ft 1 kts 87°
2026-04-23 11:30 44.57205 26.08085 318 ft 0 kts 85°
2026-04-23 11:32 44.57207 26.08121 318 ft 7 kts 85°
2026-04-23 11:32 44.57212 26.08199 317 ft 8 kts 84°
2026-04-23 11:32 44.57219 26.08301 315 ft 10 kts 83°
2026-04-23 11:32 44.57227 26.08399 315 ft 9 kts 83°
2026-04-23 11:33 44.57238 26.08480 315 ft 8 kts 55°
2026-04-23 11:33 44.57304 26.08493 314 ft 12 kts 353°
2026-04-23 11:33 44.57386 26.08480 314 ft 11 kts 354°
2026-04-23 11:33 44.57456 26.08472 314 ft 9 kts
2026-04-23 11:34 44.57498 26.08544 314 ft 13 kts 83°
2026-04-23 11:34 44.57509 26.08697 314 ft 19 kts 83°
2026-04-23 11:34 44.57527 26.08913 314 ft 24 kts 83°
2026-04-23 11:34 44.57545 26.09158 314 ft 26 kts 84°
2026-04-23 11:35 44.57565 26.09415 314 ft 26 kts 83°
2026-04-23 11:35 44.57583 26.09652 316 ft 22 kts 84°
2026-04-23 11:35 44.57599 26.09866 318 ft 22 kts 84°
2026-04-23 11:35 44.57616 26.10090 317 ft 23 kts 84°
2026-04-23 11:36 44.57634 26.10332 315 ft 26 kts 84°
2026-04-23 11:36 44.57653 26.10593 312 ft 26 kts 83°
2026-04-23 11:36 44.57673 26.10840 311 ft 24 kts 83°
2026-04-23 11:36 44.57690 26.11074 308 ft 23 kts 84°
2026-04-23 11:37 44.57707 26.11290 308 ft 21 kts 83°
2026-04-23 11:37 44.57722 26.11490 308 ft 20 kts 84°
2026-04-23 11:37 44.57738 26.11705 308 ft 23 kts 84°
2026-04-23 11:37 44.57756 26.11942 308 ft 23 kts 84°
2026-04-23 11:38 44.57772 26.12164 308 ft 21 kts 84°
2026-04-23 11:38 44.57787 26.12365 308 ft 20 kts 84°
2026-04-23 11:38 44.57801 26.12549 308 ft 18 kts 83°
2026-04-23 11:38 44.57814 26.12717 306 ft 15 kts 84°
2026-04-23 11:39 44.57826 26.12834 305 ft 10 kts 65°
2026-04-23 11:39 44.57885 26.12855 304 ft 10 kts 331°
2026-04-23 11:39 44.57941 26.12798 305 ft 9 kts 322°
2026-04-23 11:39 44.57985 26.12739 306 ft 7 kts 294°
2026-04-23 11:40 44.57985 26.12684 307 ft 3 kts 264°
2026-04-23 11:40 44.57978 26.12581 308 ft 31 kts 264°
2026-04-23 11:40 44.57929 26.11946 308 ft 97 kts 264°
2026-04-23 11:40 44.57839 26.10754 312 ft 149 kts 263°
2026-04-23 11:41 44.57720 26.09208 747 ft 158 kts 265°
2026-04-23 11:41 44.57625 26.07676 1363 ft 160 kts 269°
2026-04-23 11:41 44.57558 26.06107 1900 ft 165 kts 265°
2026-04-23 11:41 44.57477 26.04499 2346 ft 174 kts 265°
2026-04-23 11:42 44.57411 26.02736 2729 ft 187 kts 268°
2026-04-23 11:42 44.57681 26.00869 3074 ft 207 kts 295°
2026-04-23 11:42 44.58723 25.99357 3461 ft 231 kts 328°
2026-04-23 11:42 44.60338 25.98753 3834 ft 256 kts 359°
2026-04-23 11:43 44.62065 25.99372 4355 ft 268 kts 27°
2026-04-23 11:43 44.63472 26.01148 4883 ft 278 kts 58°
2026-04-23 11:43 44.64151 26.03647 5584 ft 277 kts 83°
2026-04-23 11:43 44.64357 26.06318 6348 ft 278 kts 86°
2026-04-23 11:44 44.64555 26.09009 7078 ft 281 kts 85°
2026-04-23 11:44 44.64760 26.11730 7874 ft 281 kts 85°
2026-04-23 11:44 44.64958 26.14473 8591 ft 284 kts 85°
2026-04-23 11:44 44.65149 26.17195 9358 ft 285 kts 85°
2026-04-23 11:45 44.65334 26.19956 10090 ft 288 kts 85°
2026-04-23 11:45 44.65514 26.22817 10681 ft 296 kts 85°
2026-04-23 11:45 44.65677 26.25691 11248 ft 305 kts 88°
2026-04-23 11:45 44.65350 26.28665 11813 ft 313 kts 113°
2026-04-23 11:46 44.64118 26.31198 12362 ft 322 kts 136°
2026-04-23 11:46 44.62326 26.33131 12875 ft 334 kts 144°
2026-04-23 11:46 44.60402 26.35030 13383 ft 346 kts 143°
2026-04-23 11:46 44.58418 26.37059 13861 ft 358 kts 143°
2026-04-23 11:47 44.56397 26.39114 14531 ft 365 kts 143°
2026-04-23 11:47 44.54317 26.41211 15262 ft 370 kts 144°
2026-04-23 11:47 44.52237 26.43306 16016 ft 373 kts 144°
2026-04-23 11:47 44.50143 26.45413 16738 ft 376 kts 144°
2026-04-23 11:48 44.48014 26.47551 17319 ft 371 kts 144°
2026-04-23 11:48 44.45894 26.49672 17595 ft 379 kts 144°
2026-04-23 11:48 44.43748 26.51816 18264 ft 383 kts 144°
2026-04-23 11:48 44.41577 26.53983 18874 ft 388 kts 144°
2026-04-23 11:49 44.39395 26.56161 19484 ft 392 kts 144°
2026-04-23 11:49 44.37166 26.58382 20124 ft 395 kts 144°
2026-04-23 11:49 44.34919 26.60623 20726 ft 399 kts 144°
2026-04-23 11:49 44.32671 26.62859 21321 ft 402 kts 144°
2026-04-23 11:50 44.30380 26.65134 21918 ft 404 kts 145°
2026-04-23 11:50 44.28111 26.67383 22449 ft 408 kts 146°
2026-04-23 11:50 44.25783 26.69692 22953 ft 412 kts 146°
2026-04-23 11:50 44.23428 26.72030 23380 ft 419 kts 146°
2026-04-23 11:51 44.21052 26.74386 23851 ft 422 kts 146°
2026-04-23 11:51 44.18671 26.76737 24403 ft 424 kts 146°
2026-04-23 11:51 44.16253 26.79132 24819 ft 429 kts 146°
2026-04-23 11:51 44.13804 26.81561 25323 ft 432 kts 146°
2026-04-23 11:52 44.11382 26.83956 25847 ft 433 kts 146°
2026-04-23 11:52 44.08932 26.86378 26285 ft 436 kts 146°
2026-04-23 11:52 44.06427 26.88852 26618 ft 442 kts 146°
2026-04-23 11:52 44.03911 26.91319 26987 ft 446 kts 146°
2026-04-23 11:53 44.01387 26.93796 27409 ft 448 kts 146°
2026-04-23 11:53 43.98856 26.96294 27903 ft 449 kts 146°
2026-04-23 11:53 43.96297 26.98810 28271 ft 452 kts 146°
2026-04-23 11:53 43.93722 27.01335 28565 ft 457 kts 146°
2026-04-23 11:54 43.91130 27.03879 29010 ft 457 kts 146°
2026-04-23 11:54 43.88551 27.06401 29361 ft 460 kts 146°
2026-04-23 11:54 43.85925 27.08962 29744 ft 462 kts 147°
2026-04-23 11:54 43.83308 27.11516 29983 ft 466 kts 147°
2026-04-23 11:55 43.80657 27.14101 30352 ft 467 kts 147°
2026-04-23 11:55 43.78016 27.16671 30728 ft 468 kts 147°
2026-04-23 11:55 43.75343 27.19277 31184 ft 467 kts 147°
2026-04-23 11:55 43.72713 27.21835 31495 ft 468 kts 147°
2026-04-23 11:56 43.70052 27.24420 31841 ft 469 kts 147°
2026-04-23 11:56 43.67384 27.27010 32237 ft 468 kts 147°
2026-04-23 11:56 43.64750 27.29561 32585 ft 468 kts 147°
2026-04-23 11:56 43.62100 27.32128 32902 ft 468 kts 147°
2026-04-23 11:57 43.59430 27.34705 33216 ft 468 kts 147°
2026-04-23 11:57 43.56761 27.37272 33531 ft 468 kts 147°
2026-04-23 11:57 43.54098 27.39844 33785 ft 470 kts 147°
2026-04-23 11:57 43.51446 27.42407 34090 ft 469 kts 147°
2026-04-23 11:58 43.48760 27.44989 34370 ft 469 kts 147°
2026-04-23 11:58 43.46128 27.47518 34676 ft 469 kts 147°
2026-04-23 11:58 43.43430 27.50113 34967 ft 468 kts 147°
2026-04-23 11:58 43.40810 27.52628 35254 ft 467 kts 147°
2026-04-23 11:59 43.38129 27.55193 35530 ft 466 kts 147°
2026-04-23 11:59 43.35491 27.57711 35851 ft 464 kts 147°
2026-04-23 11:59 43.32841 27.60239 36013 ft 466 kts 147°
2026-04-23 11:59 43.30177 27.62776 36271 ft 465 kts 147°
2026-04-23 12:00 43.27543 27.65293 36449 ft 466 kts 148°
2026-04-23 12:00 43.24881 27.67844 36554 ft 468 kts 147°
2026-04-23 12:00 43.22211 27.70402 36802 ft 466 kts 148°
2026-04-23 12:00 43.19568 27.72921 36975 ft 467 kts 148°
2026-04-23 12:01 43.16895 27.75456 36963 ft 467 kts 148°
2026-04-23 12:01 43.11618 27.80454 36966 ft 466 kts 148°
2026-04-23 12:02 43.06278 27.85546 36966 ft 468 kts 147°
2026-04-23 12:02 43.00996 27.90618 36965 ft 466 kts 148°
2026-04-23 12:03 42.95692 27.95652 36966 ft 463 kts 148°
2026-04-23 12:03 42.90427 28.00614 36966 ft 459 kts 149°
2026-04-23 12:04 42.85202 28.05501 36966 ft 456 kts 149°
2026-04-23 12:04 42.80004 28.10372 36966 ft 457 kts 149°
2026-04-23 12:05 42.74772 28.15262 36966 ft 458 kts 149°
2026-04-23 12:05 42.69555 28.20129 36966 ft 458 kts 149°
2026-04-23 12:06 42.64305 28.25018 36966 ft 457 kts 149°
2026-04-23 12:06 42.56482 28.32283 36966 ft 457 kts 149°
2026-04-23 12:07 42.51239 28.37139 36966 ft 457 kts 149°
2026-04-23 12:07 42.45985 28.41996 36966 ft 457 kts 149°
2026-04-23 12:08 42.40751 28.46824 36966 ft 457 kts 149°
2026-04-23 12:08 42.35528 28.51633 36985 ft 457 kts 149°
2026-04-23 12:09 42.30272 28.56462 37011 ft 457 kts 149°
2026-04-23 12:09 42.25042 28.61257 37039 ft 458 kts 149°
2026-04-23 12:10 42.19803 28.66051 37047 ft 457 kts 149°
2026-04-23 12:10 42.14562 28.70835 37047 ft 457 kts 149°
2026-04-23 12:11 42.09060 28.75041 37020 ft 451 kts 162°
2026-04-23 12:11 42.03036 28.76723 37021 ft 444 kts 180°
2026-04-23 12:12 41.96880 28.76924 37020 ft 445 kts 180°
2026-04-23 12:12 41.90744 28.77239 37020 ft 444 kts 180°
2026-04-23 12:13 41.84565 28.77508 37020 ft 444 kts 181°
2026-04-23 12:13 41.78448 28.77759 37020 ft 443 kts 181°
2026-04-23 12:14 41.72295 28.78006 37020 ft 444 kts 181°
2026-04-23 12:14 41.66126 28.78252 37020 ft 444 kts 181°
2026-04-23 12:15 41.59981 28.78494 37020 ft 444 kts 181°
2026-04-23 12:15 41.53836 28.78735 37020 ft 444 kts 181°
2026-04-23 12:16 41.47681 28.78975 37020 ft 444 kts 181°
2026-04-23 12:16 41.41548 28.79215 37020 ft 444 kts 181°
2026-04-23 12:17 41.35415 28.79453 37020 ft 444 kts 181°
2026-04-23 12:17 41.29249 28.79693 37020 ft 444 kts 181°
2026-04-23 12:18 41.23067 28.79932 37020 ft 444 kts 181°
2026-04-23 12:18 41.16948 28.80185 37020 ft 444 kts 180°
2026-04-23 12:19 41.10769 28.80450 37020 ft 444 kts 181°
2026-04-23 12:19 41.04600 28.80710 37020 ft 445 kts 181°
2026-04-23 12:20 40.98425 28.81191 37019 ft 449 kts 175°
2026-04-23 12:20 40.92373 28.83247 37021 ft 456 kts 162°
2026-04-23 12:21 40.86549 28.86452 37020 ft 456 kts 161°
2026-04-23 12:21 40.80689 28.89576 37020 ft 455 kts 161°
2026-04-23 12:22 40.74836 28.92732 37020 ft 455 kts 161°
2026-04-23 12:22 40.69023 28.95873 37020 ft 454 kts 161°
2026-04-23 12:23 40.63209 28.99014 37020 ft 454 kts 162°
2026-04-23 12:23 40.57380 29.02163 37020 ft 454 kts 162°
2026-04-23 12:24 40.51549 29.05308 37019 ft 453 kts 162°
2026-04-23 12:24 40.45740 29.08438 37013 ft 453 kts 162°
2026-04-23 12:25 40.39949 29.11552 37003 ft 453 kts 162°
2026-04-23 12:25 40.34117 29.14683 36996 ft 453 kts 162°
2026-04-23 12:26 40.28319 29.17790 36993 ft 454 kts 162°
2026-04-23 12:26 40.22483 29.20913 36993 ft 454 kts 162°
2026-04-23 12:27 40.16669 29.24018 36993 ft 454 kts 162°
2026-04-23 12:27 40.10866 29.27111 36993 ft 453 kts 162°
2026-04-23 12:28 40.05018 29.30222 36993 ft 454 kts 162°
2026-04-23 12:28 39.99211 29.33305 36993 ft 454 kts 162°
2026-04-23 12:29 39.93398 29.36386 36993 ft 454 kts 162°
2026-04-23 12:29 39.87569 29.39504 36993 ft 454 kts 161°
2026-04-23 12:30 39.81802 29.42702 36993 ft 454 kts 161°
2026-04-23 12:30 39.75993 29.45898 36993 ft 454 kts 161°
2026-04-23 12:31 39.70204 29.49075 36993 ft 454 kts 161°
2026-04-23 12:31 39.64424 29.52241 36993 ft 454 kts 161°
2026-04-23 12:32 39.58549 29.55252 36993 ft 452 kts 163°
2026-04-23 12:32 39.52684 29.58141 36993 ft 453 kts 163°
2026-04-23 12:33 39.46858 29.61045 36985 ft 453 kts 163°
2026-04-23 12:33 39.40975 29.63968 36976 ft 453 kts 163°
2026-04-23 12:34 39.35123 29.66874 36966 ft 452 kts 163°
2026-04-23 12:34 39.29265 29.69778 36966 ft 452 kts 163°
2026-04-23 12:35 39.23391 29.72685 36966 ft 453 kts 163°
2026-04-23 12:35 39.17551 29.75571 36966 ft 453 kts 163°
2026-04-23 12:36 39.11667 29.78474 36966 ft 453 kts 163°
2026-04-23 12:36 39.05822 29.81352 36966 ft 453 kts 163°
2026-04-23 12:37 38.99977 29.84226 36966 ft 452 kts 163°
2026-04-23 12:37 38.94104 29.87107 36966 ft 451 kts 163°
2026-04-23 12:38 38.88273 29.89962 36966 ft 451 kts 163°
2026-04-23 12:38 38.82422 29.92752 36966 ft 450 kts 163°
2026-04-23 12:39 38.76573 29.95523 36966 ft 450 kts 163°
2026-04-23 12:39 38.70729 29.98296 36966 ft 450 kts 163°
2026-04-23 12:40 38.64869 30.01071 36965 ft 450 kts 163°
2026-04-23 12:40 38.59023 30.03835 36960 ft 450 kts 163°
2026-04-23 12:41 38.53200 30.06583 36952 ft 450 kts 163°
2026-04-23 12:41 38.47330 30.09349 36946 ft 451 kts 163°
2026-04-23 12:42 38.41467 30.12107 36939 ft 450 kts 163°
2026-04-23 12:42 38.35606 30.14860 36928 ft 450 kts 163°
2026-04-23 12:43 38.29776 30.17570 36918 ft 450 kts 164°
2026-04-23 12:43 38.23918 30.20250 36912 ft 450 kts 164°
2026-04-23 12:44 38.18073 30.22935 36912 ft 450 kts 164°
2026-04-23 12:44 38.12204 30.25627 36912 ft 450 kts 164°
2026-04-23 12:45 38.06316 30.28322 36912 ft 450 kts 164°
2026-04-23 12:45 38.00474 30.30992 36912 ft 450 kts 164°
2026-04-23 12:46 37.94602 30.33656 36912 ft 450 kts 164°
2026-04-23 12:46 37.88704 30.36325 36912 ft 450 kts 164°
2026-04-23 12:47 37.82852 30.38970 36912 ft 450 kts 164°
2026-04-23 12:47 37.76953 30.41632 36912 ft 450 kts 164°
2026-04-23 12:48 37.71097 30.44270 36912 ft 450 kts 164°
2026-04-23 12:48 37.65179 30.46932 36912 ft 450 kts 164°
2026-04-23 12:49 37.59336 30.49556 36912 ft 450 kts 164°
2026-04-23 12:49 37.53459 30.52191 36912 ft 450 kts 164°
2026-04-23 12:50 37.47574 30.54825 36912 ft 450 kts 164°
2026-04-23 12:50 37.41671 30.57463 36912 ft 450 kts 164°
2026-04-23 12:51 37.35785 30.60087 36912 ft 450 kts 164°
2026-04-23 12:51 37.29917 30.62701 36912 ft 450 kts 164°
2026-04-23 12:52 37.24022 30.65322 36912 ft 450 kts 165°
2026-04-23 12:52 37.18178 30.67915 36912 ft 449 kts 165°
2026-04-23 12:53 37.12295 30.70521 36912 ft 449 kts 165°
2026-04-23 12:53 37.06393 30.73131 36912 ft 450 kts 164°
2026-04-23 12:54 37.00504 30.75708 36912 ft 450 kts 164°
2026-04-23 12:54 36.94590 30.78202 36912 ft 451 kts 165°
2026-04-23 12:55 36.88480 30.79409 36914 ft 446 kts 181°
2026-04-23 12:55 36.82320 30.79622 36912 ft 447 kts 180°
2026-04-23 12:56 36.76102 30.79929 36912 ft 446 kts 180°
2026-04-23 12:56 36.69953 30.80171 36912 ft 445 kts 180°
2026-04-23 12:57 36.63778 30.80403 36912 ft 446 kts 180°
2026-04-23 12:57 36.57599 30.80627 36912 ft 446 kts 180°
2026-04-23 12:58 36.51400 30.80846 36912 ft 446 kts 180°
2026-04-23 12:58 36.45238 30.81062 36912 ft 446 kts 180°
2026-04-23 12:59 36.39060 30.81275 36912 ft 446 kts 180°
2026-04-23 12:59 36.32863 30.81482 36912 ft 446 kts 180°
2026-04-23 13:00 36.26698 30.81689 36912 ft 446 kts 180°
2026-04-23 13:00 36.20554 30.81893 36912 ft 446 kts 180°
2026-04-23 13:01 36.14364 30.82099 36912 ft 445 kts 180°
2026-04-23 13:01 36.08206 30.82304 36912 ft 446 kts 180°
2026-04-23 13:02 36.02022 30.82527 36912 ft 446 kts 180°
2026-04-23 13:02 35.95855 30.82921 36912 ft 446 kts 179°
2026-04-23 13:03 35.89669 30.83305 36912 ft 446 kts 179°
2026-04-23 13:03 35.83466 30.83682 36912 ft 446 kts 179°
2026-04-23 13:04 35.80368 30.83870 36766 ft 449 kts 179°
2026-04-23 13:04 35.77241 30.84059 36510 ft 449 kts 179°
2026-04-23 13:04 35.74164 30.84295 36101 ft 448 kts 176°
2026-04-23 13:04 35.71107 30.84852 35594 ft 444 kts 171°
2026-04-23 13:05 35.68124 30.85840 35091 ft 442 kts 164°
2026-04-23 13:05 35.65300 30.87235 34597 ft 443 kts 158°
2026-04-23 13:05 35.62597 30.88995 34104 ft 447 kts 152°
2026-04-23 13:05 35.60022 30.91181 33495 ft 456 kts 144°
2026-04-23 13:06 35.55533 30.96769 32244 ft 465 kts 131°
2026-04-23 13:06 35.53666 30.99974 31626 ft 468 kts 126°
2026-04-23 13:06 35.51892 31.03327 30999 ft 470 kts 126°
2026-04-23 13:07 35.50098 31.06702 30368 ft 471 kts 126°
2026-04-23 13:07 35.48291 31.10046 29742 ft 472 kts 126°
2026-04-23 13:07 35.46500 31.13352 29124 ft 473 kts 126°
2026-04-23 13:07 35.44673 31.16737 28493 ft 475 kts 126°
2026-04-23 13:08 35.42845 31.20125 27866 ft 478 kts 126°
2026-04-23 13:08 35.41029 31.23491 27245 ft 480 kts 126°
2026-04-23 13:08 35.39172 31.26928 26614 ft 482 kts 126°
2026-04-23 13:08 35.37351 31.30298 25997 ft 483 kts 125°
2026-04-23 13:09 35.35489 31.33741 25368 ft 484 kts 125°
2026-04-23 13:09 35.33643 31.37150 24744 ft 483 kts 125°
2026-04-23 13:09 35.31786 31.40579 24114 ft 480 kts 125°
2026-04-23 13:09 35.29963 31.43942 23490 ft 475 kts 125°
2026-04-23 13:10 35.28149 31.47285 22864 ft 470 kts 125°
2026-04-23 13:10 35.26351 31.50596 22238 ft 465 kts 125°
2026-04-23 13:10 35.24572 31.53867 21612 ft 461 kts 125°
2026-04-23 13:10 35.22821 31.57086 20991 ft 457 kts 125°
2026-04-23 13:11 35.21069 31.60302 20364 ft 453 kts 125°
2026-04-23 13:11 35.19346 31.63462 19743 ft 449 kts 125°
2026-04-23 13:11 35.17631 31.66605 19119 ft 445 kts 125°
2026-04-23 13:11 35.15909 31.69756 18486 ft 441 kts 125°
2026-04-23 13:12 35.14219 31.72847 17860 ft 437 kts 125°
2026-04-23 13:12 35.12556 31.75886 17215 ft 434 kts 125°
2026-04-23 13:12 35.10868 31.78967 16452 ft 434 kts 125°
2026-04-23 13:12 35.09219 31.81974 15719 ft 433 kts 125°
2026-04-23 13:13 35.07549 31.85019 15706 ft 427 kts 125°
2026-04-23 13:13 35.05933 31.87965 15832 ft 406 kts 125°
2026-04-23 13:13 35.04397 31.90762 15898 ft 394 kts 125°
2026-04-23 13:13 35.02907 31.93471 15744 ft 376 kts 125°
2026-04-23 13:14 35.01495 31.96040 15620 ft 349 kts 125°
2026-04-23 13:14 35.00192 31.98408 15453 ft 327 kts 126°
2026-04-23 13:14 34.98954 32.00651 15076 ft 316 kts 126°
2026-04-23 13:14 34.97755 32.02822 14548 ft 310 kts 125°
2026-04-23 13:15 34.96565 32.04979 13959 ft 307 kts 125°
2026-04-23 13:15 34.95377 32.07130 13359 ft 303 kts 125°
2026-04-23 13:15 34.94211 32.09240 12765 ft 301 kts 125°
2026-04-23 13:15 34.93058 32.11325 12184 ft 297 kts 125°
2026-04-23 13:16 34.91768 32.13289 11574 ft 294 kts 135°
2026-04-23 13:16 34.90339 32.15042 10982 ft 292 kts 135°
2026-04-23 13:16 34.88957 32.16785 10400 ft 289 kts 135°
2026-04-23 13:16 34.87557 32.18561 9797 ft 288 kts 135°
2026-04-23 13:17 34.86184 32.20290 9329 ft 281 kts 135°
2026-04-23 13:17 34.84857 32.21961 8953 ft 272 kts 135°
2026-04-23 13:17 34.83566 32.23586 8582 ft 267 kts 135°
2026-04-23 13:17 34.82278 32.25205 8228 ft 266 kts 135°
2026-04-23 13:18 34.80992 32.26819 7849 ft 265 kts 135°
2026-04-23 13:18 34.79729 32.28406 7469 ft 261 kts 135°
2026-04-23 13:18 34.78485 32.29969 7022 ft 255 kts 135°
2026-04-23 13:18 34.77260 32.31506 6565 ft 249 kts 135°
2026-04-23 13:19 34.76082 32.32984 6119 ft 244 kts 135°
2026-04-23 13:19 34.74916 32.34445 5735 ft 237 kts 135°
2026-04-23 13:19 34.73789 32.35862 5372 ft 229 kts 135°
2026-04-23 13:19 34.72706 32.37217 5048 ft 221 kts 135°
2026-04-23 13:20 34.71643 32.38545 4752 ft 215 kts 135°
2026-04-23 13:20 34.70622 32.39815 4450 ft 209 kts 135°
2026-04-23 13:20 34.69628 32.41063 4169 ft 203 kts 135°
2026-04-23 13:20 34.68663 32.42279 3895 ft 197 kts 135°
2026-04-23 13:21 34.67720 32.43465 3757 ft 197 kts 135°
2026-04-23 13:21 34.66771 32.44657 3633 ft 191 kts 135°
2026-04-23 13:21 34.65908 32.45744 3513 ft 164 kts 135°
2026-04-23 13:21 34.65133 32.46717 3408 ft 163 kts 136°
2026-04-23 13:22 34.64333 32.47720 3276 ft 165 kts 136°
2026-04-23 13:22 34.63550 32.48710 3172 ft 162 kts 135°
2026-04-23 13:22 34.62754 32.49699 3101 ft 163 kts 136°
2026-04-23 13:22 34.61948 32.50686 3009 ft 162 kts 136°
2026-04-23 13:23 34.61159 32.51653 2992 ft 162 kts 136°
2026-04-23 13:23 34.60353 32.52634 2988 ft 165 kts 132°
2026-04-23 13:23 34.59853 32.53857 2987 ft 164 kts 100°
2026-04-23 13:23 34.59951 32.55238 2887 ft 165 kts 73°
2026-04-23 13:24 34.60372 32.56521 2761 ft 165 kts 59°
2026-04-23 13:24 34.60990 32.57699 2565 ft 163 kts 49°
2026-04-23 13:24 34.61753 32.58669 2394 ft 161 kts 36°
2026-04-23 13:24 34.62711 32.59405 2244 ft 162 kts 25°
2026-04-23 13:25 34.63711 32.59923 2071 ft 157 kts 12°
2026-04-23 13:25 34.64793 32.60002 1934 ft 156 kts 345°
2026-04-23 13:25 34.65752 32.59525 1821 ft 149 kts 330°
2026-04-23 13:25 34.66685 32.58923 1705 ft 152 kts 330°
2026-04-23 13:26 34.67637 32.58315 1523 ft 161 kts 329°
2026-04-23 13:26 34.68612 32.57614 1316 ft 159 kts 327°
2026-04-23 13:26 34.69434 32.56829 1079 ft 147 kts 304°
2026-04-23 13:26 34.69805 32.55676 814 ft 146 kts 282°
2026-04-23 13:27 34.70034 32.54508 723 ft 141 kts 284°
2026-04-23 13:27 34.70325 32.53357 610 ft 143 kts 288°
2026-04-23 13:27 34.70674 32.52220 480 ft 144 kts 289°
2026-04-23 13:27 34.71021 32.51082 294 ft 143 kts 289°
2026-04-23 13:28 34.71377 32.49933 93 ft 146 kts 289°
2026-04-23 13:28 34.71711 32.48829 40 ft 117 kts 289°
2026-04-23 13:28 34.71899 32.48204 46 ft 53 kts 290°
2026-04-23 13:28 34.72016 32.47823 46 ft 43 kts 290°
2026-04-23 13:29 34.72109 32.47523 45 ft 34 kts 290°
2026-04-23 13:29 34.72176 32.47298 45 ft 21 kts 290°
2026-04-23 13:29 34.72214 32.47170 44 ft 10 kts 292°
2026-04-23 13:29 34.72266 32.47130 44 ft 9 kts
2026-04-23 13:30 34.72340 32.47163 48 ft 12 kts 20°
2026-04-23 13:30 34.72375 32.47217 50 ft 8 kts 97°
2026-04-23 13:30 34.72347 32.47316 51 ft 16 kts 109°
2026-04-23 13:30 34.72300 32.47471 49 ft 22 kts 110°
2026-04-23 13:31 34.72246 32.47646 50 ft 20 kts 110°
2026-04-23 13:31 34.72199 32.47802 51 ft 19 kts 110°
2026-04-23 13:31 34.72150 32.47959 52 ft 19 kts 109°
2026-04-23 13:31 34.72102 32.48119 52 ft 20 kts 110°
2026-04-23 13:32 34.72052 32.48282 51 ft 19 kts 110°
2026-04-23 13:32 34.72012 32.48414 50 ft 13 kts 109°
2026-04-23 13:32 34.71964 32.48486 48 ft 11 kts 175°
2026-04-23 13:32 34.71870 32.48449 46 ft 15 kts 200°
2026-04-23 13:33 34.71775 32.48405 44 ft 13 kts 199°
2026-04-23 13:33 34.71688 32.48367 42 ft 13 kts 200°
2026-04-23 13:33 34.71594 32.48324 37 ft 14 kts 200°
2026-04-23 13:33 34.71509 32.48286 33 ft 12 kts 200°
2026-04-23 13:34 34.71453 32.48262 31 ft 6 kts 193°
2026-04-23 13:34 34.71410 32.48285 29 ft 7 kts 120°
2026-04-23 13:34 34.71390 32.48344 28 ft 7 kts 111°
2026-04-23 13:34 34.71374 32.48393 28 ft 2 kts 112°
2026-04-23 13:35 34.71362 32.48403 27 ft 4 kts 173°
2026-04-23 13:35 34.71323 32.48387 26 ft 6 kts 201°
2026-04-23 13:35 34.71292 32.48373 24 ft 3 kts 200°
2026-04-23 13:35 34.71282 32.48368 24 ft 0 kts 200°